TIANTONG-1 3

Last updated on Mon Sep 07 2026 00:03:01 GMT+0000 (Coordinated Universal Time)

1 47321U 21003A 26249.39405468 -.00000168 00000+0 00000+0 0 9999 2 47321 1.7070 344.4246 0003362 199.3312 25.1332 1.00270827 20772
UTC large
Height (km)
Speed (km/s)
/
Latitude / Longitude
Inclination (degrees)
Orbital Period (minutes)
Azimuth
Elevation
Range (km)
Doppler Factor

Next 0 passes for location: London (51.5072 / 0.1276)

No passes found over London.
TIANTONG-1 3